Regional Weather Roundup
Issued by NWS

Home | Current Version | Previous Version | Text Only | Print | Product List | Glossary Off
Versions: 1 2 3 4 5 6 7 8 9 10 11 12 13 14 15 16 17 18 19 20 21 22 23 24 25 26 27

000
ASUS45 KBOU 241907
RWRCO

WEATHER ROUNDUP FOR COLORADO
NATIONAL WEATHER SERVICE DENVER/BOULDER CO
100 PM MDT FRI OCT 24 2014

NOTE: "FAIR" INDICATES FEW OR NO CLOUDS BELOW 12000 FEET WITH NO
SIGNIFICANT WEATHER AND/OR OBSTRUCTIONS TO VISIBILITY.

COZ001>005-013-030-031-242000-
...NORTHWEST COLORADO...

CITY           SKY/WX    TMP DP  RH WIND       PRES   REMARKS
CRAIG          SUNNY     72  28  19 SW16G23   30.29F
HAYDEN         SUNNY     66  30  26 CALM      30.31F
MEEKER         SUNNY     71  30  21 SW10      30.31F
MOUNT WERNER   NOT AVBL
STEAMBOAT SPGS SUNNY     64  29  26 W6        30.33F
WALDEN         SUNNY     61  18  18 SW17G23   30.38F
$$

COZ006>008-011-242000-
...WEST CENTRAL VALLEYS...

CITY           SKY/WX    TMP DP  RH WIND       PRES   REMARKS
GRAND JUNCTION SUNNY     67  33  28 VRB5      30.28F
MONTROSE       SUNNY     68  35  29 N6        30.33F
EAGLE          SUNNY     63  34  34 CALM      30.36F
RIFLE          SUNNY     62  35  36 CALM      30.31F
DELTA          SUNNY     71  32  24 CALM      30.30F
NUCLA          SUNNY     68  32  26 NE5       30.37F
$$

COZ017>023-064>068-242000-
...SOUTHWEST COLORADO...

CITY           SKY/WX    TMP DP  RH WIND       PRES   REMARKS
DURANGO        SUNNY     66  35  31 SW7       30.38F
CORTEZ         SUNNY     71  32  23 S3        30.35F
PAGOSA SPRINGS SUNNY     64  28  26 CALM      30.43F
TELLURIDE      SUNNY     64  16  15 W7        30.51F
WOLF CREEK PAS SUNNY     50  21  32 SW13        N/A
$$

COZ009-010-012-014-032>034-037-058>063-242000-
...CENTRAL COLORADO...

CITY           SKY/WX    TMP DP  RH WIND       PRES   REMARKS
ASPEN          SUNNY     65  22  19 NW3       30.38F
BUENA VISTA    SUNNY     67  13  12 S3        30.37F
COPPER MTN     SUNNY     52   9  17 SW12G17   30.64S
BERTHOUD PASS  FAIR      39  36  87 NW17G25   30.64F
COTTONWOOD PAS SUNNY     63  -6   6 W13G20    30.49F
GUNNISON       SUNNY     54  28  37 CALM      30.47F
KREMMLING      SUNNY     63  25  23 S3          N/A
LEADVILLE      SUNNY     58  13  17 N15G21    30.48F
MONARCH PASS   SUNNY     45  19  36 W29G38    30.74S
SALIDA         SUNNY     69  21  16 CALM      30.41F
SUNLIGHT       SUNNY     55  28  35 CALM      30.59F
WILKERSON PASS NOT AVBL
$$

COZ069>075-242000-
...SAN LUIS VALLEY/SANGRE DE CRISTO MOUNTAINS...

CITY           SKY/WX    TMP DP  RH WIND       PRES   REMARKS
ALAMOSA        SUNNY     63  30  28 VRB5      30.40F
LA VETA PASS   SUNNY     59  30  33 S7        30.52F
SAGUACHE       SUNNY     63  30  29 S7        30.41F
$$

COZ035-036-038>040-242000-
...NORTHERN COLORADO FRONT RANGE...

CITY           SKY/WX    TMP DP  RH WIND       PRES   REMARKS
DENVER INTL AP PTSUNNY   79  19  10 VRB3      30.18F
DMNS CITY PARK   N/A     80  22  11 S5G12     30.15F
AURORA         MOSUNNY   77  22  12 SW3       30.20F
FRONT RANGE AP MOSUNNY   77  23  13 SE5       30.19F
ERIE MUNI ARPT MOSUNNY   78  20  11 S13       30.15F
BOULDER MUN AP MOSUNNY   79  28  15 E7        30.14F
CENTENNIAL     MOSUNNY   75  17  11 E5        30.20F
BROOMFIELD     MOSUNNY   77  25  14 SE10      30.19F
FORT COLLINS   PTSUNNY   73  37  27 E7        30.15F
LONGMONT       PTSUNNY   80  29  15 E7        30.15F
$$

COZ041-046-047-076>085-087-088-242000-
...PIKES PEAK/PALMER DIVIDE AND SOUTHERN FOOTHILLS...

CITY           SKY/WX    TMP DP  RH WIND       PRES   REMARKS
COLO. SPRINGS  MOSUNNY   77  18  11 SE10G18   30.24F
A. F. ACADEMY  SUNNY     76  14   9 VRB7      30.24F
ELLICOTT       NOT AVBL
FALCON         SUNNY     75  16  10 S6        30.29F
FORT CARSON    SUNNY     78  19  10 SE12      30.21F
LIMON          SUNNY     79  21  11 NE5       30.19F
MONUMENT HILL  SUNNY     73  18  12 S6        30.28F
TRINIDAD       SUNNY     77  30  17 VRB3      30.22F
$$

COZ042>045-048>051-090-091-242000-
...NORTHEAST COLORADO...

CITY           SKY/WX    TMP DP  RH WIND       PRES   REMARKS
GREELEY ARPT   MOSUNNY   73  34  23 CALM      30.14F
AKRON          SUNNY     79  28  15 W9        30.13F
BURLINGTON     MOSUNNY   84  20   9 VRB3      30.11F
WRAY           PTSUNNY   88  23   9 NW12G17   30.07F
STERLING       SUNNY     86  36  16 W13       30.07F
HOLYOKE        PTSUNNY   86  27  11 W12G22    30.07F
FORT MORGAN    SUNNY     77  32  19 W5        30.14F
$$

COZ086-089-092>099-242000-
...SOUTHEAST COLORADO...

CITY           SKY/WX    TMP DP  RH WIND       PRES   REMARKS
PUEBLO         SUNNY     82  19   9 VRB3      30.14F
LA JUNTA       SUNNY     83  29  14 W7        30.12F
LAMAR          SUNNY     82  36  19 NW9       30.09F
SPRINGFIELD      N/A     83  34  17 SW7       30.13F
$$



USA.gov is the U.S. government's official web portal to all federal, state and local government web resources and services.